Location: The Saddle
(36.8333°N, 80.3417°W)
Time: 09:24:03
(UTC-05:00)

S-56A Canister/Altair - Pass Details

Date: 14 December 2023
Orbit: 640 x 2488 km, 38.9° (Epoch: 25 February)

Event Time Altitude Azimuth Distance (km) Brightness Sun altitude
Rises 07:18:12 0° 220° (SW) 5,064 11.6 -2.2°
Reaches altitude 10° 07:22:19 10° 213° (SSW) 3,756 11.0 -1.5°
Maximum altitude 07:30:21 35° 152° (SSE) 1,791 10.2 -0.1°
Drops below altitude 10° 07:36:01 10° 88° (E) 2,626 11.4 0.9°
Sets 07:38:23 0° 78° (ENE) 3,390 11.7 1.3°
